CUTE-1 (CO-55) 1 27844U 03031E 26038.00414118 .00000481 00000+0 22742-3 0 9992 2 27844 98.6775 48.1865 0009237 197.5390 162.5471 14.24239877173145 CUBESAT XI-IV (CO-57) 1 27848U 03031J 26037.99814235 .00000403 00000+0 19627-3 0 9999 2 27848 98.6804 47.9978 0008794 216.6284 143.4294 14.23538936172851 CUBESAT XI-V 1 28895U 05043F 26037.99604190 .00002872 00000+0 46336-3 0 9993 2 28895 98.2780 191.0538 0013234 257.6507 102.3219 14.72179849 82594 CUTE-1.7+APD II (CO-65) 1 32785U 08021C 26038.12680383 .00007870 00000+0 51601-3 0 9993 2 32785 97.8168 17.0740 0011265 107.1553 253.0908 15.07919215965582 CANX-2 1 32790U 08021H 26037.91587773 .00006192 00000+0 44659-3 0 9995 2 32790 97.8521 15.3701 0012545 118.0859 242.1636 15.04449433965215 SEEDS II (CO-66) 1 32791U 08021J 26037.95330128 .00025492 00000+0 94170-3 0 9997 2 32791 97.7494 30.1478 0005381 68.0773 292.1037 15.27712917967373 SWISSCUBE 1 35932U 09051B 26038.16303156 .00001836 00000+0 37463-3 0 9994 2 35932 98.4127 303.7606 0005552 257.1862 102.8718 14.62170900870156 BEESAT-1 1 35933U 09051C 26038.17522441 .00001542 00000+0 32106-3 0 9999 2 35933 98.4057 303.6742 0004052 274.8438 85.2300 14.61458243870191 ITUPSAT1 1 35935U 09051E 26038.12162968 .00001421 00000+0 30485-3 0 9994 2 35935 98.4146 302.9446 0006315 286.5358 73.5147 14.60199012869754 TISAT 1 1 36799U 10035E 26037.75834924 .00027269 00000+0 10567-2 0 9999 2 36799 98.0614 333.3883 0003206 37.6033 322.5427 15.26123768847777 AEROCUBE 4.5A 1 38767U 12048K 26037.61510217 .00092749 00000+0 12143-2 0 9990 2 38767 64.6387 127.7753 0049365 221.0541 138.6883 15.56612492352144 STRAND-1 1 39090U 13009E 26038.06825293 .00000531 00000+0 19319-3 0 9992 2 39090 98.3856 221.5259 0007591 258.6180 101.4154 14.37066958678376 BRITE-AUSTRIA 1 39091U 13009F 26038.02621380 .00000344 00000+0 13168-3 0 9998 2 39091 98.3922 220.7054 0009066 268.6853 91.3295 14.36477382678360 NEE-01 PEGASO 1 39151U 13018B 26037.33375336 .00005952 00000+0 57991-3 0 9997 2 39151 98.1002 177.3952 0011899 231.6032 128.4118 14.92834627691175 POPACS 2 1 39269U 13055E 26037.15123168 .00020822 00000+0 37333-3 0 9993 2 39269 80.9942 293.7109 0434500 253.6008 101.7035 14.86393455643710 POPACS 3 1 39270U 13055F 26037.35844103 .00010094 00000+0 24276-3 0 9998 2 39270 81.0042 10.7409 0564295 107.6570 258.7045 14.53098618619536 ZACUBE-1 (TSHEPISOSAT) 1 39417U 13066B 26037.84709542 .00009144 00000+0 72817-3 0 9992 2 39417 97.8176 359.5257 0040880 326.5593 33.3049 14.99939853661187 WNISAT-1 1 39423U 13066H 26038.01854316 .00001481 00000+0 27964-3 0 9998 2 39423 97.6985 196.5758 0162526 282.0356 76.2671 14.57767783647760 TRITON-1 1 39427U 13066M 26038.20206060 .00004112 00000+0 50217-3 0 9991 2 39427 97.8309 310.9962 0089853 298.5394 60.6795 14.80997644654848 GOMX-1 1 39430U 13066Q 26038.17384020 .00002639 00000+0 40305-3 0 9993 2 39430 97.6574 246.7799 0130495 134.5784 226.6163 14.68964663650827 CUBEBUG-2 (LO-74) 1 39440U 13066AA 26037.79615628 .00006647 00000+0 62887-3 0 9994 2 39440 97.8775 346.4411 0060814 99.2482 261.5622 14.92581267657536 NEE-02 KRYSAOR 1 39441U 13066AB 26037.80866507 .00003037 00000+0 33987-3 0 9990 2 39441 97.8788 338.0998 0067968 136.1348 224.5293 14.85972002656835 FUNCUBE-1 (AO-73) 1 39444U 13066AE 26038.17612027 .00013058 00000+0 85589-3 0 9999 2 39444 97.8151 7.2229 0035839 287.0470 72.6832 15.07302567660067 UWE-3 1 39446U 13066AG 26036.82439138 .00010655 00000+0 93494-3 0 9995 2 39446 97.8559 352.2552 0051670 39.3948 321.1012 14.95763546657930 BRITE-CA1 (TORONTO) 1 40020U 14033L 26038.18456081 .00001371 00000+0 21449-3 0 9993 2 40020 97.9525 169.6930 0078421 333.9798 25.7476 14.72380902623089 DUCHIFAT-1 1 40021U 14033M 26038.18767144 .00058869 00000+0 11894-2 0 9995 2 40021 98.0698 81.1054 0006209 171.4869 188.6485 15.46271792635559 NANOSATC-BR1 1 40024U 14033Q 26038.12846074 .00022917 00000+0 86801-3 0 9998 2 40024 98.0870 59.3450 0001955 282.3924 77.7094 15.26924717634102 QB50P1 1 40025U 14033R 26037.95519644 .00014026 00000+0 73643-3 0 9991 2 40025 98.1000 40.1836 0007822 321.5100 38.5572 15.15825625633286 QB50P2 1 40032U 14033Y 26038.04984583 .00012346 00000+0 70143-3 0 9993 2 40032 98.0704 27.0713 0005770 256.2610 103.7977 15.13056797632975 PERSEUS-M2 1 40037U 14033AD 26038.17505719 .00002994 00000+0 27895-3 0 9996 2 40037 97.9824 346.2342 0012434 16.7482 343.4146 14.95002771631350 PERSEUS-M1 1 40039U 14033AF 26037.82233864 .00003161 00000+0 29358-3 0 9991 2 40039 97.9517 339.9703 0012143 16.8800 343.2821 14.95083071631151 POLYITAN-1 1 40042U 14033AJ 26038.10908460 .00024688 00000+0 89819-3 0 9993 2 40042 98.1068 52.4869 0006099 233.3410 126.7267 15.28223757633698 TIGRISAT 1 40043U 14033AK 26037.99127182 .00004007 00000+0 47055-3 0 9993 2 40043 97.7618 191.1828 0050617 140.8067 219.6831 14.84543025626309 AEROCUBE 6A 1 40045U 14033AM 26038.04188366 .00009071 00000+0 79246-3 0 9996 2 40045 97.7085 206.6208 0040345 91.1697 269.4147 14.96378135627144 AEROCUBE 6B 1 40046U 14033AN 26038.03305129 .00008917 00000+0 75298-3 0 9995 2 40046 97.7079 206.1479 0039161 82.8268 277.7404 14.97741058627268 CANX-4 1 40055U 14034C 26038.10553989 .00001628 00000+0 21733-3 0 9990 2 40055 98.3319 268.5114 0014084 70.8544 289.4190 14.80979645625279 CANX-5 1 40056U 14034D 26038.17301936 .00001639 00000+0 21868-3 0 9992 2 40056 98.3322 268.6173 0014078 70.7458 289.5275 14.80996442616095 UKUBE-1 1 40074U 14037F 26038.03134748 .00012350 00000+0 74104-3 0 9998 2 40074 98.4213 27.9018 0000880 130.3561 229.7743 15.11105210628889 BRITE-PL2 (HEWELIUSZ) 1 40119U 14049B 26038.13407373 .00003441 00000+0 32756-3 0 9997 2 40119 97.8981 149.2941 0014205 175.6515 184.4830 14.94016331622023 AEROCUBE 5C 1 40965U 15058B 26038.18777656 .00004073 00000+0 36599-3 0 9997 2 40965 64.7686 306.7618 0132581 114.4905 247.0100 14.90604064346278 AEROCUBE 7 1 40966U 15058C 26038.07395963 .00005735 00000+0 46918-3 0 9995 2 40966 64.7628 292.0104 0122720 113.8520 247.5512 14.94550262346504 FOX-1A (AO-85) 1 40967U 15058D 26038.12518014 .00004304 00000+0 39296-3 0 9998 2 40967 64.7771 322.9163 0130332 108.0145 253.5220 14.90109357 94187 SINOD-D 1 1 40968U 15058E 26038.20026341 .00005865 00000+0 48193-3 0 9994 2 40968 64.7764 305.6205 0118822 105.6506 255.7756 14.94702490 97226 SNAP-3 ALICE 1 40970U 15058G 26038.02224139 .00072513 00000+0 17548-2 0 9995 2 40970 64.7578 186.4156 0038219 88.8674 271.6841 15.39927704 96724 LMRST-SAT 1 40971U 15058H 26038.18229235 .00004105 00000+0 37708-3 0 9998 2 40971 64.7774 318.8369 0132603 109.9297 251.6156 14.89741691 94186 SNAP-3 EDDIE 1 40972U 15058J 26038.16891368 .00071543 00000+0 16723-2 0 9992 2 40972 64.7498 177.5028 0039960 92.9969 267.5742 15.40902770 98873 PROPCUBE 3 1 40973U 15058K 26038.12787245 .00005025 00000+0 42513-3 0 9996 2 40973 64.7694 298.5822 0125420 111.8579 249.5929 14.93217352 95374 BISONSAT 1 40974U 15058L 26037.89590911 .00016588 00000+0 87436-3 0 9991 2 40974 64.7588 233.8738 0081521 105.4507 255.5639 15.12850299 95884 SNAP-3 JIMI 1 40975U 15058M 26038.04739512 .00007980 00000+0 56826-3 0 9997 2 40975 64.7645 271.0354 0107670 109.3881 251.8912 15.00634065 94687 PROPCUBE 1 (FLORA) 1 40976U 15058N 26038.15336329 .00003932 00000+0 37541-3 0 9995 2 40976 64.7770 338.0012 0131742 112.1388 249.3767 14.88414379 96909 SINOD-D 3 1 40977U 15058P 26038.13447537 .00005539 00000+0 47697-3 0 9996 2 40977 64.7743 321.5952 0120265 110.4229 250.9848 14.92887730 95337 HORYU-4 1 41340U 16012D 26038.07979668 .00088640 00000+0 11338-2 0 9996 2 41340 30.9913 281.2427 0001900 73.5614 286.5246 15.57826179550320 RAVAN 1 41849U 16067B 26038.13512499 .00044401 00000+0 98191-3 0 9992 2 41849 98.0096 273.7418 0008075 96.3896 263.8270 15.43664626507567 CELTEE 1 1 41850U 16067C 26038.10408905 .00007918 00000+0 39125-3 0 9991 2 41850 98.0847 255.7857 0001228 38.8120 321.3200 15.18160050506133 OPTICUBE 04 1 41851U 16067D 26038.07525807 .00003398 00000+0 21896-3 0 9993 2 41851 98.0816 243.5047 0015404 192.9584 167.1250 15.08985525505549 AEROCUBE 8D 1 41852U 16067E 26038.16815320 .00011356 00000+0 49627-3 0 9991 2 41852 98.0864 258.4916 0002579 209.4403 150.6687 15.22282666506270 AEROCUBE 8C 1 41853U 16067F 26038.14722484 .00011772 00000+0 51090-3 0 9997 2 41853 98.0728 255.8711 0006015 139.1575 221.0112 15.22497498506268 CORVUS BC2 1 42846U 17042X 26038.01953017 .00006128 00000+0 43166-3 0 9992 2 42846 97.3889 204.6232 0013090 193.6964 166.3910 15.05298438467479 CORVUS BC1 1 42847U 17042Y 26038.03075928 .00004575 00000+0 32123-3 0 9996 2 42847 97.3924 205.3565 0012299 168.0660 192.0861 15.05552914467503 MAKERSAT 0 1 43016U 17073D 26037.90291463 .00030668 00000+0 95582-3 0 9998 2 43016 97.4831 279.8039 0121504 15.3586 345.1287 15.26180816446559 SIRION PATHFINDER-2 1 43759U 18099B 26038.16981273 .00007270 00000+0 41312-3 0 9990 2 43759 97.4449 90.3136 0009773 38.1217 322.0703 15.13152482392954 CORVUS BC4 1 43767U 18099K 26038.07291195 .00007204 00000+0 43121-3 0 9993 2 43767 97.4265 84.8392 0010022 90.7505 269.4873 15.11272558392748 SPACEBEE-7 1 43816U 18099BL 26038.18520214 .00334549 00000+0 18781-2 0 9995 2 43816 97.4560 122.3219 0004955 285.4887 74.5832 15.78344482394360 SHIELDS 1 1 43850U 18104B 26037.96791945 .01058937 -14387-5 63260-3 0 9994 2 43850 84.9927 221.9061 0004138 277.0033 83.0790 16.18499107399622 M2 PATHFINDER 1 45727U 20037E 26038.00988673 .00005525 00000+0 40441-3 0 9999 2 45727 97.8141 227.8013 0011086 231.0680 128.9558 15.03954563305924 NETSAT-4 1 46504U 20068U 26037.98071361 .00023142 00000+0 59835-3 0 9992 2 46504 97.8633 36.2204 0008358 73.3850 286.8312 15.39078633295713 NETSAT-3 1 46505U 20068V 26037.94408902 .00024716 00000+0 66794-3 0 9994 2 46505 97.8665 34.5929 0008320 85.9557 274.2637 15.37701035295635 NETSAT-1 1 46506U 20068W 26037.97626483 .00018935 00000+0 63367-3 0 9993 2 46506 97.8724 30.3780 0007992 99.6507 260.5636 15.30991361295354 NETSAT-2 1 46507U 20068X 26037.95504809 .00029321 00000+0 73457-3 0 9991 2 46507 97.8648 35.7393 0007137 95.0404 265.1655 15.40004150295653 WILDTRACKCUBE-SIMBA 1 47941U 21022K 26036.82214838 .00355522 00000+0 14163-2 0 9993 2 47941 97.3994 316.0845 0008645 116.6269 243.5888 15.85699147270753 GREENCUBE (IO-117) 1 53109U 22080E 26036.82714451 -.00000003 00000+0 00000+0 0 9991 2 53109 70.1644 343.9250 0009171 317.3784 42.6164 6.42583143 83627 SITRO-AIS 5 (KATYS) 1 57176U 23091L 26038.20084517 .00017516 00000+0 67786-3 0 9993 2 57176 97.5243 101.0575 0011885 195.6386 164.4486 15.26194670144494 SITRO-AIS 6 (CHIRKIN) 1 57192U 23091AC 26038.18567171 .00010556 00000+0 43859-3 0 9992 2 57192 97.5247 100.7505 0012294 194.4971 165.5915 15.23932811144478 SITRO-AIS 8 (ANOKHIN) 1 57193U 23091AD 26038.22703060 .00020850 00000+0 75553-3 0 9991 2 57193 97.5236 102.1997 0011186 192.2940 167.8028 15.28341162144578 SITRO-AIS 7 (FARTUSHNIY) 1 57194U 23091AE 26038.16558580 .00009350 00000+0 39145-3 0 9999 2 57194 97.5246 100.6130 0011854 195.6662 164.4210 15.23715082144467 SITRO-AIS 10 (BURDAEV) 1 57199U 23091AK 26038.22539045 .00028451 00000+0 88060-3 0 9999 2 57199 97.5247 106.0646 0007844 168.6705 191.4715 15.33408519144811 SITRO-AIS 9 (SHCHUKIN) 1 57201U 23091AM 26038.21646057 .00028637 00000+0 89613-3 0 9995 2 57201 97.5248 105.8722 0007841 169.8300 190.3102 15.33056998144806 SITRO-AIS 12 (SMIRENNIY) 1 57204U 23091AQ 26038.16439906 .00029316 00000+0 91027-3 0 9992 2 57204 97.5256 106.2123 0007800 162.9729 197.1777 15.33300526144815 SITRO-AIS 11 (SHEFFER) 1 57208U 23091AU 26038.20931271 .00029638 00000+0 91108-3 0 9990 2 57208 97.5255 106.4335 0007737 162.8103 197.3403 15.33618497144838 SITRO-AIS 25 1 59066U 24039R 26038.21463507 .00006666 00000+0 52716-3 0 9998 2 59066 95.3947 145.8278 0149266 62.5962 299.0358 14.92352006105338 SITRO-AIS 26 1 59067U 24039S 26038.19926256 .00006062 00000+0 48144-3 0 9991 2 59067 95.3951 145.7399 0149658 63.0945 298.5483 14.92171038105325 SITRO-AIS 27 1 59068U 24039T 26038.20461522 .00006363 00000+0 50122-3 0 9997 2 59068 95.3951 145.9578 0148722 61.9829 299.6350 14.92558848105341 SITRO-AIS 28 1 59071U 24039U 26038.18505911 .00007247 00000+0 56991-3 0 9991 2 59071 95.3952 145.9844 0148740 61.9520 299.6656 14.92595362105341 GRBBETA 1 60237U 24128C 26038.09017131 .00006422 00000+0 44541-3 0 9990 2 60237 61.9914 312.3266 0053863 107.9879 252.7094 15.05431895 86676 OOV-CUBE (TUBSAT-30) 1 60240U 24128F 26038.14161145 .00004062 00000+0 31356-3 0 9993 2 60240 61.9965 318.8030 0056611 106.0184 254.7152 15.02029886 86575 ROBUSTA-3A (MEDITERRAN*) 1 60243U 24128J 26038.19801510 .00012144 00000+0 74122-3 0 9996 2 60243 61.9876 307.1977 0054175 102.3298 258.3868 15.09465332 86782 LASARSAT 1 62391U 24247Q 26037.98569638 .00035046 00000+0 91880-3 0 9998 2 62391 44.9755 269.4013 0002596 220.0669 140.0026 15.38128285 63217 CROCUBE 1 62394U 24247T 26038.03631492 .00039379 00000+0 99909-3 0 9999 2 62394 44.9736 268.0171 0002443 199.0321 161.0475 15.39084884 63230